This demonstration page uses our WeatherBlox Daily Observations layout. Learn more.

Hourly Observations for December 14, 2016

Temp ( °F °C ) Dew Point ( °F °C ) Humidity (%) Winds ( mph kmh ) Pressure ( in mb ) Visibility ( mi km ) Precip ( " mm )
12:54 am 00:54 Cloudy 18 -7.8 9 -12.8 68 68 S 6 9 30.29 1026 10 16.0934 0 0
1:54 am 01:54 Cloudy 20 -6.7 7 -13.9 57 57 SW 6 9 30.29 1026 10 16.0934 0 0
2:54 am 02:54 Mostly Cloudy 19 -7.2 6 -14.4 57 57 SSW 3 6 30.31 1026 10 16.0934 0 0
3:54 am 03:54 Clear 17 -8.3 6 -14.4 62 62 SW 3 6 30.32 1027 10 16.0934 0 0
4:54 am 04:54 Clear 16 -8.9 6 -14.4 65 65 NW 5 7 30.33 1027 10 16.0934 0 0
5:54 am 05:54 Clear 12 -11.1 5 -15 73 73 N 5 7 30.36 1028 10 16.0934 0 0
6:54 am 06:54 Mostly Clear 9 -12.8 4 -15.6 80 80 NNW 5 7 30.4 1030 10 16.0934 0 0
7:54 am 07:54 Cloudy 15 -9.4 9 -12.8 77 77 N 7 11 30.41 1030 10 16.0934 0 0
8:54 am 08:54 Sunny 19 -7.2 10 -12.2 68 68 N 8 13 30.45 1031 10 16.0934 0 0
9:54 am 09:54 Sunny 20 -6.7 9 -12.8 62 62 NNW 7 11 30.46 1032 10 16.0934 0 0
10:54 am 10:54 Sunny 22 -5.6 2 -16.7 42 42 NNW 17 28 30.48 1032 10 16.0934 0 0
11:54 am 11:54 Sunny 23 -5 0 -17.8 36 36 NNW 21 33 30.48 1032 10 16.0934 0 0
12:54 pm 12:54 Sunny 24 -4.4 0 -17.8 35 35 NW 18 30 30.47 1032 10 16.0934 0 0
1:54 pm 13:54 Sunny 25 -3.9 -1 -18.3 32 32 NW 16 26 30.45 1031 10 16.0934 0 0
2:54 pm 14:54 Sunny 25 -3.9 0 -17.8 33 33 NW 15 24 30.45 1031 10 16.0934 0 0
3:54 pm 15:54 Sunny 24 -4.4 -2 -18.9 32 32 NW 17 28 30.47 1032 10 16.0934 0 0
4:54 pm 16:54 Sunny 22 -5.6 -2 -18.9 35 35 NW 14 22 30.48 1032 10 16.0934 0 0
5:54 pm 17:54 Clear 20 -6.7 -2 -18.9 38 38 NW 7 11 30.5 1033 10 16.0934 0 0
6:54 pm 18:54 Clear 18 -7.8 -3 -19.4 39 39 Calm 30.52 1034 10 16.0934 0 0
7:54 pm 19:54 Clear 15 -9.4 -3 -19.4 44 44 W 3 6 30.52 1033 10 16.0934 0 0
8:54 pm 20:54 Clear 12 -11.1 -2 -18.9 53 53 N 3 6 30.52 1034 10 16.0934 0 0
9:54 pm 21:54 Clear 8 -13.3 -3 -19.4 60 60 NNW 3 6 30.53 1034 10 16.0934 0 0
10:54 pm 22:54 Clear 3 -16.1 -3 -19.4 76 76 Calm 30.55 1035 10 16.0934 0 0
11:54 pm 23:54 Clear 6 -14.4 -3 -19.4 66 66 Calm 30.55 1035 10 16.0934 0 0

Powered by AerisWeather